Weather Roundup
Issued by NWS Chicago, IL

Home | Current Version | Previous Version | Graphics & Text | Print | Product List | Glossary On
Versions: 1 2 3 4 5 6 7 8 9 10 11 12 13 14 15 16 17 18 19 20 21 22 23 24 25 26 27 28 29 30 31 32 33 34 35 36 37 38 39 40 41 42 43 44 45 46 47 48 49 50
000
NZUS59 KLOT 222006
HRRLOT

CHICAGO AREA WEATHER ROUNDUP
NATIONAL WEATHER SERVICE CHICAGO/ROMEOVILLE IL
200 PM CST MON DEC 22 2014

NOTE: "FAIR" INDICATES FEW OR NO CLOUDS BELOW 12,000 FEET WITH NO
SIGNIFICANT WEATHER AND/OR OBSTRUCTIONS TO VISIBILITY.

* THESE STATIONS ARE NOT UNDER NWS QUALITY CONTROL. THEY ALSO MAY NOT
  REPORT WEATHER SUCH AS PRECIPITATION OR FOG.

ILZ005-006-012>014-019>023-222100-
NORTHEAST ILLINOIS

CITY           SKY/WX    TMP DP  RH WIND       PRES   REMARKS
OHARE          LGT RAIN  36  33  89 E10       29.73F FOG
MIDWAY         LGT RAIN  39  35  86 E10       29.74F FOG
AURORA         LGT RAIN  38  34  85 E14       29.69F FOG
LANSING*       LGT RAIN  38  36  92 SE9       29.74F
JOLIET*        LGT RAIN  37  35  94 E12       29.71F
WAUKEGAN       LGT RAIN  35  33  92 E12       29.75F FOG     WCI  27
DUPAGE AIRPORT LGT RAIN  36  33  89 E8        29.71F FOG
WHEELING       LGT RAIN  35  33  92 E7        29.76F FOG     WCI  29
KANKAKEE*      RAIN      37  37  97 E12       29.73F
MORRIS*        LGT RAIN  37  37 100 SE13      29.69F
LEWIS AIRPORT* LGT RAIN  37  37  99 E9        29.71F
NORTHERLY IS     N/A     36  33  89 E9          N/A
$$

WIZ051-052-058>065-066-070>072-222100-
SOUTHEAST WISCONSIN

CITY           SKY/WX    TMP DP  RH WIND       PRES   REMARKS
MILWAUKEE      LGT RAIN  36  32  85 E13       29.78F FOG
KENOSHA*       LGT SNOW  36  34  92 E14       29.75F FOG
RACINE*        LGT RAIN  36  34  92 E12       29.78F FOG
BURLINGTON     MIX PCPN  33  32  96 E10       29.74F WCI  25
WAUKESHA       LGT RAIN  34  32  93 E14       29.77F FOG     WCI  24
WEST BEND      DRIZZLE   34  32  93 SE9       29.78F WCI  26
$$

INZ001>003-010>013-019-020-222100-
NORTHWEST INDIANA

CITY           SKY/WX    TMP DP  RH WIND       PRES   REMARKS
GARY*          CLOUDY    39  34  81 SE12      29.75F FOG
MICHIGAN CITY* NOT AVBL
RENSSELAER*    NOT AVBL
VALPARAISO     LGT RAIN  37  35  92 E12       29.76F FOG
$$

LMZ740>746-222100-
SOUTHERN LAKE MICHIGAN

STATION/POSITION TIME  SKY/WX   TEMP WIND        PRES    VSBY
                                AIR  DIR/SP/G
                 (UTC)          (F)  (DEG/KT/KT) (MB)    (MI)
HARRISON CRIB    2000            36  120/ 16/ 17   N/A
BURNHAM HARBOR   2000            36  100/  8/ 10   N/A
CALUMET HARBOR   2000            36   90/  9/ 11 1006.3F
BURNS HARBOR     NOT AVBL
MICHIGAN CITY    NOT AVBL
$$

ABBREVIATIONS USED IN REMARKS
   TC - TEMPERATURE IN CELSIUS
  WCI - WIND CHILL INDEX
   HX - HEAT INDEX
  VSB - VISIBILITY
$$


USA.gov is the U.S. government's official web portal to all federal, state and local government web resources and services.